[[{"header":{"parameterUnit":"m.s-1","parameterCategory":2,"la1":30.2991,"la2":30.254,"lo1":-89.0895,"lo2":-89.0444,"dy":0.0017,"dx":0.0017,"nx":28,"ny":28,"refTime":"2025-07-22T03:00:00:Z","depth":"0","parameterNumber":2,"parameterNumberName":"U-component_of_CURRENTS"},"data":[0,0,0,0,0,0,0,0,0,0,0,0,0,0,0,0,0,0,0,0,0,0,0,0,0,0,0,0,0,0,0,0,0,0,0,0,0,0,0,0,0,0,0,0,0,0,0,0,0,0,0,0,0,0,0,0,0,0,0.4736,0.4738,0,0.4861,0.4862,0.4863,0.487,0.4869,0.4868,0.4868,0.4858,0.4859,0.4859,0,0,0,0,0,0,0,0,0,0,0,0,0,0.454,0.4543,0.4736,0.4738,0.474,0.4861,0.4862,0.4864,0.487,0.4869,0.4868,0.4867,0.4858,0.4859,0.4859,0,0,0,0,0,0,0,0,0,0,0,0,0,0.4635,0.4544,0.4736,0.4763,0.4767,0.4861,0.4862,0.4864,0.4871,0.4869,0.4868,0.4867,0.4858,0.4859,0.486,0.4891,0,0,0.4862,0.4863,0,0,0,0,0,0,0,0,0.463,0.4642,0.4757,0.4761,0.4766,0.4854,0.479,0.4869,0.4871,0.4825,0.4868,0.4866,0.485,0.4851,0.4871,0.4891,0.489,0.4862,0.4863,0.4863,0.4863,0,0,0,0,0,0,0,0.4623,0.4637,0.4779,0.4759,0.4765,0.4782,0.4793,0.4805,0.4836,0.4829,0.4831,0.4855,0.485,0.487,0.487,0.489,0.4862,0.4863,0.4864,0.4864,0.4992,0.4995,0,0,0,0,0,0,0.462,0.4631,0.4776,0.4784,0.47,0.4787,0.4799,0.4822,0.4839,0.4843,0.4856,0.4855,0.4869,0.4869,0.487,0.4955,0.4863,0.4864,0.4864,0.499,0.4993,0.4996,0,0,0,0,0,0,0.4616,0.4632,0.4771,0.4715,0.4734,0.4792,0.4818,0.4826,0.4861,0.4862,0.4862,0.4886,0.4868,0.4868,0.4895,0.4953,0.4864,0.4865,0.4986,0.4991,0.4995,0.5096,0,0,0,0,0,0,0.4609,0.4629,0.4638,0.4715,0.4738,0.4827,0.482,0.4829,0.488,0.488,0.4888,0.4885,0.4867,0.4894,0.4896,0.4952,0.4866,0.4982,0.4988,0.4993,0.5089,0.5103,0.5115,0,0,0,0,0,0.4602,0.4631,0.4637,0.4655,0.475,0.4829,0.4841,0.4873,0.4883,0.4899,0.4912,0.4885,0.4931,0.4897,0.4899,0.4956,0.498,0.4986,0.4993,0.5083,0.51,0.5115,0,0,0,0,0,0,0.4553,0.4637,0.4645,0.4697,0.4755,0.4832,0.4861,0.4891,0.4919,0.4915,0.4913,0.4911,0.4962,0.4947,0.4911,0.5012,0.4956,0.4963,0.5024,0.504,0.5053,0.5092,0.4867,0,0,0,0,0,0.4547,0.4589,0.4664,0.4707,0.4737,0.4802,0.4839,0.4864,0.4908,0.4921,0.493,0.495,0.4993,0.5003,0.5019,0.5068,0.5105,0.5111,0.5124,0.5135,0.5171,0.5273,0.5299,0.5018,0.5018,0.5017,0,0,0.4551,0.4595,0.4624,0.4699,0.4747,0.4814,0.482,0.4883,0.4948,0.4914,0.4983,0.4991,0.5016,0.5074,0.5096,0.5066,0.5238,0.5143,0.5153,0.5183,0.5283,0.531,0.5335,0.5022,0.5021,0.5021,0,0,0.4584,0.4609,0.4658,0.4707,0.478,0.4825,0.485,0.4927,0.4964,0.503,0.5039,0.5095,0.5124,0.5177,0.5206,0.531,0.5305,0.5299,0.5397,0.5495,0.552,0.5541,0.5635,0.5664,0.5304,0.5305,0.5305,0,0.4589,0.4647,0.4684,0.4742,0.4797,0.4838,0.4911,0.4968,0.5041,0.5094,0.5057,0.5187,0.5195,0.5327,0.5361,0.5345,0.5385,0.5329,0.5514,0.5536,0.5557,0.5647,0.5678,0.531,0.531,0.5309,0.5309,0,0.4656,0.4705,0.4742,0.4829,0.4887,0.4953,0.5037,0.5093,0.5136,0.5197,0.5313,0.5337,0.5421,0.5436,0.543,0.559,0.5567,0.5518,0.5473,0.5592,0.5678,0.5709,0.5318,0.5316,0.5315,0.5313,0,0,0.4676,0.4774,0.4784,0.4838,0.4937,0.5001,0.5111,0.5236,0.5338,0.5385,0.5532,0.5606,0.5617,0.5655,0.566,0.5745,0.5925,0.5694,0.5697,0.5787,0.6144,0.6012,0.6032,0.5893,0.5899,0.5903,0.6149,0,0.4724,0.4828,0.4872,0.4993,0.5064,0.5136,0.5248,0.5359,0.5445,0.5583,0.5655,0.5769,0.5703,0.5752,0.5834,0.5922,0.6008,0.5863,0.6017,0.6023,0.589,0.6064,0.5719,0.5899,0.6179,0.6184,0.6188,0,0.4775,0.4839,0.4952,0.5091,0.5133,0.5211,0.5394,0.5498,0.5687,0.5757,0.5874,0.5925,0.6098,0.5997,0.6214,0.6118,0.6147,0.6186,0.6195,0.6062,0.5948,0.5824,0.5943,0.577,0.6234,0.6231,0.6227,0,0.4773,0.4901,0.4988,0.5035,0.5195,0.5273,0.5368,0.5548,0.5676,0.5875,0.5987,0.6149,0.6271,0.6345,0.6411,0.6333,0.663,0.653,0.644,0.6431,0.6167,0.6124,0.6134,0.6673,0.6673,0.6672,0.6671,0,0.4822,0.4901,0.499,0.5046,0.5182,0.5285,0.5461,0.5579,0.5788,0.5962,0.6068,0.6224,0.6362,0.6519,0.6525,0.6604,0.6725,0.6519,0.6507,0.619,0.6148,0.6004,0.5958,0.6681,0.6679,0.6677,0.6676,0,0.4864,0.4901,0.5016,0.5148,0.5187,0.5296,0.5505,0.5635,0.5818,0.6055,0.6129,0.6372,0.6558,0.6662,0.6838,0.6764,0.6639,0.6803,0.6423,0.636,0.6055,0.6027,0.592,0.5751,0.6772,0.677,0.6769,0,0.4907,0.4962,0.5073,0.5117,0.5184,0.5333,0.5434,0.563,0.5775,0.612,0.6236,0.6496,0.6604,0.6822,0.6756,0.6778,0.6601,0.6482,0.6261,0.605,0.6012,0.5821,0.5672,0.5969,0.5962,0.5955,0.595,0,0.5011,0.5033,0.5124,0.5182,0.5262,0.5361,0.5516,0.5639,0.5886,0.6062,0.6276,0.6382,0.6551,0.6414,0.6456,0.6416,0.6147,0.6351,0.6233,0.5495,0.5191,0.5013,0.5814,0.5894,0.59,0.5904,0.5907,0.5909,0.5077,0.5156,0.5208,0.5261,0.5305,0.5331,0.5343,0.5519,0.5683,0.5807,0.6085,0.6035,0.606,0.6031,0.5996,0.5698,0.5759,0.5464,0.5492,0.5353,0.5036,0.5723,0.5709,0.5714,0.5717,0.5721,0.5724,0,0.5111,0.519,0.5268,0.525,0.5176,0.5231,0.5326,0.5267,0.5313,0.5459,0.5511,0.5386,0.5253,0.5247,0.5071,0.4853,0.4628,0.4732,0.4373,0.4303,0.4995,0.4798,0.446,0.446,0.446,0.446,0.446,0.446,0.5141,0.5196,0.5217,0.507,0.5017,0.4824,0.4799,0.4759,0.4778,0.4637,0.4475,0.4468,0.4671,0.4669,0.4418,0.4295,0.399,0.3768,0.3877,0.4342,0.4409,0.4474,0.4275,0.3832,0.3832,0.2898,0.2891,0.2886]},{"header":{"parameterUnit":"m.s-1","parameterCategory":2,"la1":30.2991,"la2":30.254,"lo1":-89.0895,"lo2":-89.0444,"dy":0.0017,"dx":0.0017,"nx":28,"ny":28,"refTime":"2025-07-22T03:00:00:Z","depth":"0","parameterNumber":3,"parameterNumberName":"V-component_of_CURRENTS"},"data":[0,0,0,0,0,0,0,0,0,0,0,0,0,0,0,0,0,0,0,0,0,0,0,0,0,0,0,0,0,0,0,0,0,0,0,0,0,0,0,0,0,0,0,0,0,0,0,0,0,0,0,0,0,0,0,0,0,0,0.027,0.0269,0,0.0198,0.0197,0.0196,0.0127,0.0126,0.0125,0.0125,0.0037,0.0035,0.0033,0,0,0,0,0,0,0,0,0,0,0,0,0,0.0291,0.0291,0.027,0.0269,0.0269,0.0198,0.0197,0.0196,0.0127,0.0126,0.0125,0.0124,0.0037,0.0035,0.0033,0,0,0,0,0,0,0,0,0,0,0,0,0,0.0254,0.0292,0.027,0.0228,0.0224,0.0199,0.0197,0.0195,0.0127,0.0126,0.0125,0.0124,0.0038,0.0035,0.0033,0.0034,0,0,0.0025,0.0023,0,0,0,0,0,0,0,0,0.0257,0.0253,0.0235,0.0231,0.0226,0.0173,0.0172,0.0142,0.0127,0.016,0.0125,0.0124,0.0084,0.0077,0.0061,0.003,0.0026,0.0024,0.0023,0.0022,0.0021,0,0,0,0,0,0,0,0.0259,0.0256,0.0238,0.0234,0.0229,0.0194,0.0188,0.0166,0.0125,0.0157,0.0153,0.015,0.0081,0.0064,0.0059,0.0025,0.0024,0.0022,0.002,0.0019,-0.0009,-0.0008,0,0,0,0,0,0,0.0279,0.0259,0.0241,0.0236,0.0243,0.0195,0.0188,0.0189,0.0126,0.0116,0.0151,0.0147,0.0069,0.0062,0.0055,0.008,0.0022,0.0019,0.0017,-0.0009,-0.0008,-0.0007,0,0,0,0,0,0,0.0279,0.0278,0.0244,0.0248,0.0242,0.0196,0.0197,0.0188,0.0179,0.0122,0.0111,0.0154,0.0068,0.0059,0.0041,0.0075,0.0018,0.0015,-0.001,-0.0009,-0.0008,0.0113,0,0,0,0,0,0,0.028,0.0279,0.0283,0.025,0.0242,0.0251,0.0198,0.0187,0.018,0.0174,0.012,0.011,0.0067,0.0045,0.0038,0.007,0.0013,-0.0012,-0.001,-0.0008,0.0108,0.0118,0.0127,0,0,0,0,0,0.0281,0.0306,0.0283,0.0281,0.025,0.0253,0.0247,0.0208,0.0181,0.0193,0.0144,0.0113,0.005,0.0044,0.0035,0.0068,-0.0012,-0.001,-0.0008,0.0103,0.0116,0.0127,0,0,0,0,0,0,0.0319,0.03,0.0275,0.0291,0.0279,0.0243,0.0247,0.0222,0.0193,0.0181,0.0122,0.011,0.0102,0.0069,0.0063,0.0062,0.0015,0.0015,0.0103,0.0114,0.0123,0.0171,0.0011,0,0,0,0,0,0.0329,0.034,0.0315,0.0328,0.0326,0.0287,0.0281,0.0258,0.0229,0.0215,0.0177,0.0134,0.0103,0.0097,0.0059,0.0068,0.0053,0.0082,0.0092,0.01,0.0132,0.0144,0.0159,-0.0001,-0.0001,-0.0001,0,0,0.0347,0.0338,0.0342,0.0337,0.0318,0.0338,0.0281,0.0285,0.0306,0.0211,0.0222,0.0163,0.0109,0.0107,0.0103,0.0088,0.0132,0.0103,0.0111,0.0138,0.0148,0.0164,0.0178,0.0,0.0,-0.0,0,0,0.0405,0.0381,0.0414,0.0412,0.04,0.038,0.039,0.0363,0.0355,0.0351,0.0286,0.0258,0.0212,0.0189,0.0169,0.0215,0.0174,0.0193,0.0295,0.0307,0.0321,0.0333,0.0319,0.0329,0.021,0.021,0.0211,0,0.0429,0.0461,0.0425,0.0459,0.0471,0.041,0.0456,0.0442,0.0414,0.0427,0.0371,0.0318,0.0259,0.0282,0.0281,0.0242,0.0229,0.0258,0.0323,0.0335,0.0346,0.0328,0.0338,0.0216,0.0216,0.0215,0.0215,0,0.0513,0.0535,0.0558,0.0578,0.0587,0.0614,0.0596,0.0604,0.0572,0.0557,0.0561,0.0475,0.0449,0.042,0.0357,0.0407,0.0365,0.0326,0.0303,0.037,0.0345,0.0354,0.0225,0.0223,0.0221,0.022,0,0,0.0575,0.0612,0.0618,0.0652,0.0653,0.0676,0.0716,0.0747,0.079,0.0738,0.08,0.0713,0.0658,0.0631,0.0554,0.0559,0.059,0.0481,0.0478,0.0483,0.0603,0.0536,0.0537,0.0564,0.0567,0.0569,0.0551,0,0.0652,0.0741,0.074,0.0825,0.0868,0.0845,0.0898,0.0913,0.0901,0.094,0.0874,0.0881,0.0744,0.0731,0.071,0.0635,0.062,0.0598,0.0524,0.0522,0.0468,0.0548,0.051,0.0489,0.0559,0.056,0.0561,0,0.0734,0.0784,0.0882,0.0961,0.0981,0.1027,0.1099,0.1139,0.1169,0.1163,0.115,0.1088,0.108,0.0948,0.0871,0.0863,0.074,0.0668,0.0665,0.0575,0.0471,0.0434,0.05,0.0273,0.0572,0.0572,0.0571,0,0.0793,0.0885,0.0969,0.0992,0.1067,0.1125,0.1168,0.1211,0.1273,0.1314,0.1362,0.1311,0.1319,0.1183,0.1,0.0944,0.092,0.0822,0.0642,0.0634,0.0577,0.056,0.0434,0.0763,0.0763,0.0763,0.0763,0,0.0873,0.0943,0.1008,0.1054,0.1177,0.1205,0.1333,0.1365,0.1444,0.1567,0.1479,0.1571,0.1383,0.1327,0.1108,0.0925,0.0998,0.0691,0.0645,0.0612,0.06,0.0375,0.0237,0.0762,0.0762,0.0762,0.0762,0,0.093,0.0963,0.1068,0.1166,0.1205,0.1294,0.1435,0.1532,0.1592,0.1755,0.1786,0.1801,0.1752,0.1528,0.135,0.1094,0.076,0.0802,0.0763,0.0713,0.0296,0.0166,-0.0012,-0.0098,0.0606,0.0604,0.0603,0,0.0976,0.1032,0.1142,0.1206,0.1259,0.1389,0.1492,0.1589,0.171,0.1916,0.2021,0.2037,0.2086,0.1784,0.137,0.1004,0.0755,0.0677,0.0548,0.0301,0.0122,0.0018,-0.0048,0.0507,0.0505,0.0504,0.0502,0,0.1072,0.1096,0.1174,0.1289,0.1402,0.1554,0.1718,0.1842,0.2011,0.2187,0.2432,0.2504,0.2222,0.1871,0.1336,0.1055,0.0498,0.0629,0.0403,0.0073,-0.0074,-0.0187,0.0468,0.0488,0.049,0.0491,0.0491,0.0492,0.1141,0.1202,0.1281,0.1395,0.1528,0.173,0.1888,0.2106,0.2368,0.267,0.2719,0.2854,0.2277,0.1571,0.1178,0.0378,0.0393,0.0094,-0.0032,-0.0104,-0.0221,0.0391,0.0336,0.0336,0.0337,0.0337,0.0337,0,0.1225,0.1285,0.1388,0.1541,0.1702,0.1764,0.2047,0.2246,0.2607,0.2854,0.3072,0.2808,0.2121,0.1395,0.0325,-0.0201,-0.037,-0.0477,-0.0631,-0.0656,-0.0081,-0.0121,-0.0312,-0.0312,-0.0312,-0.0312,-0.0311,-0.0311,0.1272,0.1373,0.1412,0.1662,0.179,0.2049,0.2229,0.254,0.2765,0.3073,0.3107,0.3091,0.2475,0.0666,-0.0507,-0.0756,-0.1094,-0.1215,-0.1327,-0.0962,-0.0918,-0.0876,-0.0944,-0.1305,-0.1306,-0.1842,-0.1848,-0.1852]}],[{"header":{"parameterUnit":"m.s-1","parameterCategory":2,"la1":30.2991,"la2":30.254,"lo1":-89.0895,"lo2":-89.0444,"dy":0.0017,"dx":0.0017,"nx":28,"ny":28,"refTime":"2025-07-22T03:00:00:Z","depth":"2","parameterNumber":2,"parameterNumberName":"U-component_of_CURRENTS"},"data":[0,0,0,0,0,0,0,0,0,0,0,0,0,0,0,0,0,0,0,0,0,0,0,0,0,0,0,0,0,0,0,0,0,0,0,0,0,0,0,0,0,0,0,0,0,0,0,0,0,0,0,0,0,0,0,0,0,0,0.3483,0.3483,0,0.358,0.3582,0.3585,0.3675,0.3674,0.3674,0.3673,0.3725,0.3727,0.3728,0,0,0,0,0,0,0,0,0,0,0,0,0,0.3468,0.3468,0.3483,0.3482,0.3482,0.3579,0.3583,0.3586,0.3675,0.3674,0.3673,0.3673,0.3724,0.3726,0.3729,0,0,0,0,0,0,0,0,0,0,0,0,0,0.3527,0.3469,0.3483,0.3525,0.3528,0.3579,0.3583,0.3586,0.3675,0.3674,0.3673,0.3673,0.3723,0.3726,0.3729,0.3764,0,0,0.3738,0.3739,0,0,0,0,0,0,0,0,0.3524,0.353,0.3519,0.3522,0.3526,0.3598,0.3595,0.3637,0.3675,0.3639,0.3673,0.3672,0.3667,0.3674,0.3721,0.3766,0.3768,0.3738,0.374,0.3741,0.3742,0,0,0,0,0,0,0,0.352,0.3527,0.354,0.3518,0.3522,0.3569,0.3578,0.3606,0.367,0.3642,0.3644,0.3626,0.3671,0.3718,0.3722,0.3769,0.3738,0.374,0.3742,0.3743,0.3836,0.3837,0,0,0,0,0,0,0.3467,0.3522,0.3536,0.3541,0.3502,0.3568,0.3579,0.3591,0.367,0.3677,0.3626,0.3629,0.3714,0.3719,0.3724,0.3827,0.3741,0.3743,0.3745,0.3835,0.3836,0.3837,0,0,0,0,0,0,0.3467,0.3469,0.3532,0.3518,0.3526,0.3567,0.3581,0.3593,0.365,0.3656,0.3665,0.3669,0.3714,0.372,0.378,0.3827,0.3745,0.3747,0.3834,0.3835,0.3836,0.3994,0,0,0,0,0,0,0.3467,0.347,0.3487,0.3515,0.3525,0.3591,0.358,0.3595,0.363,0.3636,0.3695,0.3699,0.3713,0.3777,0.3783,0.3829,0.375,0.3833,0.3835,0.3836,0.3988,0.4001,0.4012,0,0,0,0,0,0.3467,0.3481,0.3489,0.349,0.354,0.3591,0.3606,0.3642,0.3633,0.3687,0.3718,0.3698,0.3788,0.3781,0.3789,0.3836,0.3833,0.3834,0.3836,0.3983,0.3998,0.4011,0,0,0,0,0,0,0.348,0.3491,0.3499,0.3517,0.3561,0.36,0.3644,0.365,0.3723,0.3733,0.3734,0.3744,0.3813,0.3788,0.378,0.3857,0.3796,0.3799,0.3905,0.3919,0.393,0.3896,0.3752,0,0,0,0,0,0.3485,0.3507,0.3529,0.3548,0.3577,0.3615,0.3641,0.3669,0.371,0.3744,0.3766,0.3785,0.3826,0.3843,0.3876,0.3927,0.3943,0.3947,0.3959,0.3969,0.3941,0.4078,0.4103,0.3842,0.3842,0.3842,0,0,0.3482,0.3496,0.3503,0.3552,0.3599,0.3648,0.3638,0.3697,0.3743,0.3733,0.3818,0.3843,0.3849,0.3925,0.3948,0.3911,0.4048,0.3971,0.3981,0.3946,0.4083,0.4109,0.4133,0.3843,0.3843,0.3843,0,0,0.3499,0.3524,0.3561,0.3608,0.3665,0.369,0.3703,0.3762,0.3813,0.3877,0.3889,0.3939,0.3976,0.4016,0.4029,0.411,0.4117,0.4103,0.4137,0.4274,0.4298,0.4319,0.4375,0.44,0.41,0.41,0.41,0,0.3507,0.3543,0.3582,0.3642,0.3671,0.3704,0.3759,0.382,0.3885,0.3923,0.3911,0.4013,0.4018,0.4122,0.4133,0.4143,0.4193,0.4101,0.4297,0.4318,0.4337,0.4389,0.4414,0.4108,0.4107,0.4106,0.4105,0,0.356,0.3595,0.3628,0.3705,0.3759,0.3811,0.3876,0.394,0.3965,0.4,0.4113,0.416,0.4214,0.422,0.4192,0.4323,0.4306,0.4319,0.4279,0.4375,0.442,0.4445,0.4119,0.4116,0.4114,0.4112,0,0,0.3559,0.3644,0.3659,0.3697,0.3795,0.3838,0.3933,0.4017,0.408,0.4152,0.4251,0.4305,0.4336,0.4348,0.437,0.4437,0.4604,0.4416,0.442,0.4496,0.487,0.4726,0.4738,0.4686,0.4691,0.4695,0.4851,0,0.3594,0.3683,0.3722,0.38,0.3855,0.3918,0.3998,0.4085,0.416,0.4269,0.4344,0.4446,0.4395,0.4454,0.4529,0.4588,0.4672,0.4555,0.4737,0.474,0.4627,0.4763,0.4382,0.4478,0.4874,0.4878,0.488,0,0.3637,0.3691,0.3771,0.3848,0.3883,0.3949,0.4083,0.4144,0.4297,0.4369,0.4494,0.4569,0.469,0.4649,0.4826,0.4766,0.4815,0.4843,0.4853,0.4668,0.4641,0.4441,0.4506,0.492,0.4917,0.4914,0.4911,0,0.3619,0.3714,0.3766,0.38,0.3907,0.3982,0.4044,0.4188,0.4248,0.4458,0.4552,0.4723,0.4849,0.4942,0.5004,0.4945,0.5191,0.5142,0.5061,0.505,0.4723,0.4674,0.5293,0.5292,0.5292,0.5292,0.5291,0,0.362,0.3657,0.3773,0.3809,0.3901,0.3985,0.4092,0.4194,0.434,0.4425,0.4613,0.4752,0.4937,0.5096,0.51,0.5159,0.5307,0.5074,0.5101,0.4761,0.4716,0.508,0.5053,0.5297,0.5296,0.5295,0.5294,0,0.3565,0.363,0.369,0.3831,0.3892,0.3954,0.4094,0.4141,0.4322,0.4464,0.4545,0.4823,0.5014,0.5168,0.5348,0.5293,0.5351,0.5346,0.489,0.4858,0.5074,0.5053,0.5232,0.5228,0.5226,0.5223,0.5221,0,0.3552,0.3547,0.3702,0.3742,0.3813,0.3919,0.3973,0.4126,0.4157,0.4476,0.4516,0.4833,0.4972,0.5197,0.5195,0.5237,0.5353,0.49,0.4691,0.5069,0.5079,0.5062,0.5045,0.4324,0.4315,0.4308,0.4302,0,0.3438,0.3469,0.3491,0.3662,0.3739,0.3794,0.389,0.3924,0.4083,0.4229,0.4444,0.4612,0.4865,0.4759,0.486,0.4814,0.4843,0.4741,0.5352,0.4384,0.4223,0.4229,0.4241,0.4235,0.4241,0.4246,0.425,0.4253,0.3311,0.3311,0.3382,0.3507,0.3607,0.3685,0.3653,0.3722,0.3783,0.3934,0.4199,0.4315,0.4427,0.4348,0.4246,0.4188,0.448,0.4276,0.4296,0.4325,0.4178,0.402,0.3962,0.3967,0.3971,0.3975,0.3978,0,0.3178,0.3219,0.3254,0.3401,0.3453,0.3588,0.358,0.3474,0.3478,0.3669,0.3811,0.3604,0.3554,0.3665,0.3458,0.3449,0.3388,0.3317,0.3204,0.3276,0.3338,0.3135,0.2646,0.2641,0.2637,0.2633,0,0,0.3122,0.3075,0.3091,0.3182,0.333,0.3298,0.3242,0.313,0.3134,0.3114,0.3145,0.3447,0.3581,0.3074,0.301,0.2792,0.3007,0.2689,0.3771,0.3714,0.377,0.3921,0.3694,0,0,0,0,0]},{"header":{"parameterUnit":"m.s-1","parameterCategory":2,"la1":30.2991,"la2":30.254,"lo1":-89.0895,"lo2":-89.0444,"dy":0.0017,"dx":0.0017,"nx":28,"ny":28,"refTime":"2025-07-22T03:00:00:Z","depth":"2","parameterNumber":3,"parameterNumberName":"V-component_of_CURRENTS"},"data":[0,0,0,0,0,0,0,0,0,0,0,0,0,0,0,0,0,0,0,0,0,0,0,0,0,0,0,0,0,0,0,0,0,0,0,0,0,0,0,0,0,0,0,0,0,0,0,0,0,0,0,0,0,0,0,0,0,0,0.0138,0.0138,0,0.0082,0.0081,0.008,0.0016,0.0016,0.0015,0.0014,-0.0072,-0.0073,-0.0075,0,0,0,0,0,0,0,0,0,0,0,0,0,0.0148,0.0148,0.0138,0.0138,0.0137,0.0082,0.0081,0.008,0.0016,0.0016,0.0015,0.0014,-0.0071,-0.0073,-0.0075,0,0,0,0,0,0,0,0,0,0,0,0,0,0.0119,0.0148,0.0138,0.0102,0.0098,0.0082,0.0081,0.008,0.0016,0.0016,0.0015,0.0014,-0.007,-0.0073,-0.0075,-0.0072,0,0,-0.0083,-0.0084,0,0,0,0,0,0,0,0,0.0121,0.0119,0.0107,0.0104,0.01,0.0058,0.0053,0.0029,0.0017,0.0044,0.0014,0.0013,-0.0028,-0.0034,-0.0047,-0.0076,-0.008,-0.0083,-0.0085,-0.0086,-0.0087,0,0,0,0,0,0,0,0.0123,0.0121,0.0112,0.0107,0.0103,0.0074,0.0069,0.0048,0.0011,0.0041,0.0037,0.0037,-0.0031,-0.0044,-0.005,-0.0081,-0.0083,-0.0086,-0.0087,-0.0088,-0.0134,-0.0133,0,0,0,0,0,0,0.0141,0.0123,0.0114,0.0111,0.0113,0.0075,0.0069,0.007,0.0011,0.0003,0.0038,0.0034,-0.004,-0.0047,-0.0053,-0.0051,-0.0086,-0.0088,-0.009,-0.0134,-0.0134,-0.0133,0,0,0,0,0,0,0.0141,0.0141,0.0116,0.0118,0.0114,0.0076,0.0077,0.0069,0.0059,0.001,-0.0,0.0037,-0.0041,-0.0049,-0.0073,-0.0055,-0.009,-0.0092,-0.0134,-0.0134,-0.0133,-0.0048,0,0,0,0,0,0,0.0142,0.0141,0.0146,0.012,0.0114,0.012,0.0078,0.0069,0.0062,0.0056,0.0006,-0.0004,-0.0042,-0.0069,-0.0075,-0.0059,-0.0094,-0.0135,-0.0134,-0.0134,-0.0051,-0.0044,-0.0039,0,0,0,0,0,0.0142,0.0162,0.0146,0.0145,0.0122,0.0122,0.0117,0.0084,0.0063,0.0068,0.0024,-0.0002,-0.007,-0.007,-0.0078,-0.0062,-0.0135,-0.0134,-0.0134,-0.0054,-0.0046,-0.0039,0,0,0,0,0,0,0.017,0.0157,0.0139,0.0153,0.0142,0.0113,0.0115,0.0095,0.0065,0.0055,0.0003,-0.0008,-0.0027,-0.0055,-0.0054,-0.0075,-0.0107,-0.0108,-0.0043,-0.0036,-0.003,-0.0001,-0.0096,0,0,0,0,0,0.0179,0.0188,0.017,0.0181,0.0179,0.0148,0.0142,0.0123,0.0096,0.0082,0.0048,0.0007,-0.0029,-0.004,-0.0076,-0.0078,-0.0104,-0.0075,-0.0069,-0.0063,-0.0046,-0.0062,-0.0055,-0.0131,-0.0131,-0.0131,0,0,0.0191,0.0188,0.019,0.0188,0.0173,0.0185,0.0142,0.0144,0.0154,0.0078,0.0079,0.0027,-0.0028,-0.0042,-0.005,-0.006,-0.006,-0.0062,-0.0057,-0.0043,-0.0061,-0.0053,-0.0047,-0.013,-0.013,-0.0131,0,0,0.0233,0.0219,0.0243,0.0242,0.0236,0.0216,0.0224,0.0202,0.0191,0.0182,0.0124,0.0085,0.0045,0.0007,-0.0018,0.0004,-0.0033,-0.0007,0.0058,0.0042,0.0049,0.0054,0.0017,0.0018,0.0005,0.0005,0.0005,0,0.0247,0.0277,0.025,0.0278,0.0288,0.0238,0.0271,0.0255,0.0229,0.0231,0.0195,0.0124,0.0068,0.0053,0.0048,0.002,0.0002,0.0037,0.0053,0.0058,0.0062,0.0022,0.0023,0.0009,0.0008,0.0008,0.0008,0,0.0311,0.0332,0.035,0.0364,0.0369,0.039,0.0371,0.0374,0.0346,0.0323,0.0303,0.0222,0.0185,0.0153,0.0103,0.0108,0.0081,0.0058,0.0041,0.0075,0.003,0.0029,0.0015,0.0013,0.0012,0.0011,0,0,0.0352,0.0388,0.0394,0.0425,0.0421,0.044,0.0458,0.0466,0.0492,0.0437,0.0465,0.0368,0.0322,0.029,0.0223,0.0198,0.0185,0.015,0.0147,0.0125,0.0145,0.0084,0.0077,0.0176,0.0177,0.0177,0.0096,0,0.0411,0.0487,0.0484,0.0552,0.0589,0.0566,0.0597,0.0594,0.0571,0.0583,0.0497,0.0483,0.0377,0.0364,0.0319,0.0226,0.0191,0.0209,0.0104,0.0101,0.0053,0.0077,0.0108,0.0036,0.0095,0.0095,0.0095,0,0.0477,0.0523,0.0602,0.0667,0.0683,0.0719,0.0766,0.0785,0.0772,0.0757,0.0715,0.0646,0.0586,0.05,0.0364,0.0386,0.0276,0.0192,0.0187,0.0106,0.004,0.0012,0.0032,0.0093,0.0093,0.0093,0.0093,0,0.0533,0.0608,0.0679,0.07,0.0756,0.0805,0.0837,0.0845,0.0895,0.0875,0.0907,0.0798,0.0785,0.063,0.0438,0.0412,0.0295,0.0235,0.0072,0.0065,0.0058,0.005,0.0149,0.0149,0.0149,0.0149,0.0149,0,0.0604,0.0663,0.0722,0.0768,0.0877,0.0888,0.0999,0.1006,0.1053,0.1134,0.1011,0.1056,0.0826,0.0723,0.0509,0.0296,0.0347,0.009,0.0049,0.0084,0.0079,0.0104,0.01,0.0146,0.0147,0.0147,0.0148,0,0.0659,0.0687,0.0782,0.0869,0.0909,0.0992,0.113,0.1217,0.1232,0.134,0.1351,0.1277,0.1132,0.0877,0.0637,0.0417,0.0194,0.0105,0.0146,0.011,-0.0053,-0.0052,-0.0098,-0.01,-0.0102,-0.0104,-0.0106,0,0.0699,0.075,0.0862,0.0934,0.0988,0.1118,0.1227,0.13,0.1413,0.1485,0.1566,0.1462,0.1401,0.1007,0.0614,0.0229,0.0193,0.0001,-0.0063,-0.0038,-0.0074,-0.0069,-0.0065,-0.0048,-0.0049,-0.0049,-0.005,0,0.0785,0.0812,0.0894,0.1031,0.1163,0.1324,0.1493,0.1617,0.1719,0.1802,0.1899,0.1847,0.1472,0.1092,0.0559,0.0293,0.0052,-0.003,0.0024,0.0004,0.0001,-0.0032,-0.0027,-0.0057,-0.0056,-0.0056,-0.0055,-0.0055,0.0846,0.0929,0.1025,0.1159,0.1309,0.1527,0.1675,0.1859,0.2047,0.2176,0.213,0.205,0.1609,0.0919,0.0466,-0.0005,0.0004,-0.0174,-0.0167,-0.0161,-0.0146,-0.0153,-0.0239,-0.0239,-0.024,-0.024,-0.024,0,0.0939,0.1034,0.1153,0.1336,0.1504,0.1572,0.1848,0.1984,0.2209,0.2311,0.2345,0.1916,0.148,0.0986,0.0282,-0.016,-0.018,-0.0293,-0.0213,-0.0204,-0.0196,-0.018,-0.0284,-0.0285,-0.0286,-0.0287,0,0,0.1,0.1139,0.1203,0.1476,0.1605,0.1847,0.2008,0.2181,0.2297,0.2377,0.2339,0.2221,0.1625,0.1108,0.0521,0.0128,0.006,0.0042,0.012,0.0292,0.0305,-0.0089,-0.005,0,0,0,0,0]}],[{"header":{"parameterUnit":"m.s-1","parameterCategory":2,"la1":30.2991,"la2":30.254,"lo1":-89.0895,"lo2":-89.0444,"dy":0.0017,"dx":0.0017,"nx":28,"ny":28,"refTime":"2025-07-22T03:00:00:Z","depth":"4","parameterNumber":2,"parameterNumberName":"U-component_of_CURRENTS"},"data":[0,0,0,0,0,0,0,0,0,0,0,0,0,0,0,0,0,0,0,0,0,0,0,0,0,0,0,0,0,0,0,0,0,0,0,0,0,0,0,0,0,0,0,0,0,0,0,0,0,0,0,0,0,0,0,0,0,0,0.2009,0.201,0,0.2077,0.2077,0.2078,0.2147,0.2148,0.215,0.2151,0.2243,0.2244,0.2245,0,0,0,0,0,0,0,0,0,0,0,0,0,0.1949,0.1949,0.2009,0.201,0.2011,0.2077,0.2077,0.2078,0.2147,0.2148,0.215,0.2151,0.2242,0.2244,0.2245,0,0,0,0,0,0,0,0,0,0,0,0,0,0.1989,0.1949,0.2009,0.2055,0.206,0.2076,0.2077,0.2078,0.2147,0.2149,0.215,0.2152,0.2242,0.2244,0.2246,0.2224,0,0,0.2252,0.2253,0,0,0,0,0,0,0,0,0.1987,0.1991,0.2047,0.2052,0.2058,0.2107,0.209,0.2129,0.2146,0.2111,0.2151,0.2153,0.22,0.2205,0.2211,0.2228,0.2232,0.2252,0.2253,0.2254,0.2255,0,0,0,0,0,0,0,0.1984,0.1989,0.2033,0.2048,0.2055,0.2076,0.2083,0.2097,0.2144,0.2115,0.212,0.2131,0.2203,0.2208,0.2213,0.2233,0.2252,0.2254,0.2255,0.2256,0.2386,0.2389,0,0,0,0,0,0,0.1978,0.1986,0.2031,0.2036,0.2028,0.2076,0.2084,0.2088,0.2143,0.2154,0.2129,0.2134,0.2204,0.2211,0.2217,0.2329,0.2254,0.2256,0.2257,0.2384,0.2387,0.2389,0,0,0,0,0,0,0.1976,0.1981,0.2029,0.2015,0.2023,0.2075,0.2079,0.2088,0.2137,0.2155,0.2166,0.2174,0.2206,0.2214,0.2289,0.2328,0.2257,0.2259,0.2382,0.2385,0.2388,0.2467,0,0,0,0,0,0,0.1974,0.1979,0.2002,0.2014,0.2023,0.2074,0.2078,0.2088,0.2139,0.2147,0.2195,0.2203,0.2208,0.2286,0.2291,0.233,0.2261,0.2379,0.2383,0.2387,0.2461,0.2473,0.2482,0,0,0,0,0,0.1971,0.1988,0.2002,0.2009,0.2044,0.2076,0.2084,0.2125,0.214,0.2172,0.2218,0.2204,0.2316,0.229,0.2295,0.2335,0.2377,0.2382,0.2387,0.2457,0.247,0.2482,0,0,0,0,0,0,0.1975,0.1997,0.2013,0.2037,0.2073,0.209,0.2126,0.2144,0.2201,0.2225,0.2235,0.2247,0.2325,0.2321,0.2292,0.2386,0.2342,0.2348,0.2394,0.2406,0.2416,0.2418,0.2262,0,0,0,0,0,0.1983,0.2008,0.203,0.2058,0.2076,0.2106,0.2132,0.2161,0.2201,0.2229,0.2266,0.2305,0.2339,0.2369,0.2399,0.2449,0.2463,0.2478,0.2489,0.2497,0.2503,0.2594,0.2613,0.2406,0.2406,0.2406,0,0,0.1993,0.2011,0.2027,0.2063,0.2092,0.2126,0.2128,0.2182,0.2224,0.2228,0.2317,0.2346,0.2362,0.2429,0.2462,0.2438,0.256,0.2504,0.2511,0.2512,0.2601,0.2621,0.2639,0.2409,0.2409,0.2408,0,0,0.2015,0.2043,0.2068,0.21,0.2155,0.2174,0.2197,0.2245,0.2287,0.2361,0.2378,0.244,0.2493,0.2518,0.253,0.2612,0.2613,0.2624,0.2678,0.2766,0.2784,0.28,0.2826,0.2843,0.2628,0.2628,0.2628,0,0.2036,0.2057,0.2085,0.2118,0.2151,0.2197,0.2234,0.2277,0.2352,0.2392,0.2408,0.2511,0.253,0.2594,0.2632,0.2634,0.2673,0.2627,0.278,0.2796,0.2811,0.2834,0.2853,0.2633,0.2632,0.2632,0.2631,0,0.2059,0.2097,0.2118,0.2172,0.2215,0.2259,0.2313,0.2381,0.2435,0.2473,0.2574,0.2613,0.2676,0.2688,0.2688,0.2797,0.2785,0.2784,0.2748,0.2837,0.2855,0.2873,0.2639,0.2637,0.2636,0.2635,0,0,0.2046,0.2119,0.2133,0.2156,0.2247,0.2271,0.2367,0.2443,0.2505,0.259,0.2669,0.2739,0.2777,0.2794,0.2809,0.2879,0.301,0.289,0.2893,0.2912,0.3187,0.2988,0.2987,0.3059,0.3064,0.3067,0.3149,0,0.206,0.2117,0.216,0.2223,0.2249,0.2329,0.2406,0.2493,0.2577,0.2672,0.2729,0.2818,0.281,0.2866,0.2937,0.3003,0.3066,0.2985,0.31,0.3101,0.2913,0.3004,0.308,0.3162,0.3166,0.3169,0.3171,0,0.2053,0.2094,0.2158,0.2233,0.2256,0.2313,0.2439,0.2518,0.2662,0.2737,0.2842,0.2901,0.3017,0.3003,0.3158,0.3121,0.3167,0.3199,0.3204,0.3003,0.2936,0.306,0.3203,0.3201,0.3198,0.3196,0.3194,0,0.1991,0.2077,0.2126,0.2155,0.2264,0.2322,0.2399,0.2546,0.2627,0.2802,0.289,0.3015,0.3115,0.3203,0.3289,0.3257,0.3447,0.34,0.3247,0.3231,0.3349,0.3331,0.3513,0.3513,0.3513,0.3513,0.3512,0,0.1943,0.1975,0.2104,0.2122,0.2191,0.2294,0.2393,0.2502,0.2671,0.2769,0.2928,0.3019,0.3191,0.331,0.3344,0.3353,0.3501,0.3266,0.3254,0.3375,0.336,0.336,0.3341,0.3516,0.3515,0.3514,0.3514,0,0.1822,0.1923,0.1971,0.2107,0.2157,0.2207,0.2372,0.2441,0.264,0.2782,0.2856,0.3082,0.3233,0.3353,0.3506,0.3413,0.3443,0.3411,0.3527,0.3518,0.3139,0.3124,0.321,0.3204,0.3199,0.3195,0.3191,0,0.175,0.1767,0.1932,0.198,0.2038,0.2138,0.2213,0.2408,0.2486,0.2783,0.283,0.3071,0.319,0.3243,0.3374,0.3417,0.3385,0.3357,0.3234,0.3136,0.3117,0.3109,0.3101,0.3183,0.3182,0.318,0.3179,0,0.1587,0.1676,0.1729,0.1852,0.1936,0.2005,0.2126,0.217,0.2406,0.2607,0.2762,0.2865,0.3024,0.3123,0.3207,0.3222,0.3345,0.3303,0.3311,0.3195,0.3104,0.3089,0.3087,0.3161,0.3164,0.3165,0.3167,0,0.1483,0.1475,0.1595,0.167,0.1801,0.1856,0.1926,0.2035,0.2154,0.2482,0.2525,0.2784,0.3001,0.3024,0.309,0.3107,0.3033,0.2909,0.2936,0.2957,0.2836,0.2682,0.2612,0,0,0,0,0,0.1372,0.1342,0.1397,0.1505,0.1646,0.173,0.1868,0.1951,0.2177,0.2228,0.2378,0.2518,0.2651,0.2774,0.2738,0.2935,0.3019,0.2873,0.2884,0.3063,0.3084,0.2964,0,0,0,0,0,0,0.1301,0.133,0.1328,0.137,0.1435,0.1564,0.1656,0.1803,0.1835,0.2084,0.2174,0.2369,0.2531,0.2675,0.2703,0.2733,0.2683,0.3028,0.3021,0.3052,0.307,0.3087,0.2971,0,0,0,0,0]},{"header":{"parameterUnit":"m.s-1","parameterCategory":2,"la1":30.2991,"la2":30.254,"lo1":-89.0895,"lo2":-89.0444,"dy":0.0017,"dx":0.0017,"nx":28,"ny":28,"refTime":"2025-07-22T03:00:00:Z","depth":"4","parameterNumber":3,"parameterNumberName":"V-component_of_CURRENTS"},"data":[0,0,0,0,0,0,0,0,0,0,0,0,0,0,0,0,0,0,0,0,0,0,0,0,0,0,0,0,0,0,0,0,0,0,0,0,0,0,0,0,0,0,0,0,0,0,0,0,0,0,0,0,0,0,0,0,0,0,0.0117,0.0116,0,0.0086,0.0086,0.0085,0.0046,0.0045,0.0045,0.0045,-0.0013,-0.0014,-0.0015,0,0,0,0,0,0,0,0,0,0,0,0,0,0.0114,0.0114,0.0117,0.0116,0.0116,0.0086,0.0086,0.0085,0.0046,0.0045,0.0045,0.0044,-0.0013,-0.0014,-0.0016,0,0,0,0,0,0,0,0,0,0,0,0,0,0.01,0.0114,0.0117,0.0095,0.0093,0.0086,0.0086,0.0085,0.0046,0.0045,0.0045,0.0044,-0.0012,-0.0014,-0.0016,-0.0013,0,0,-0.0021,-0.0022,0,0,0,0,0,0,0,0,0.0101,0.01,0.0098,0.0096,0.0094,0.0071,0.0063,0.0051,0.0046,0.0061,0.0045,0.0044,0.0014,0.001,0.0003,-0.0016,-0.0018,-0.0021,-0.0022,-0.0023,-0.0023,0,0,0,0,0,0,0,0.0102,0.0101,0.0102,0.0098,0.0095,0.0077,0.0075,0.0061,0.004,0.006,0.0058,0.0058,0.0012,0.0005,0.0002,-0.0019,-0.0021,-0.0023,-0.0024,-0.0024,-0.0066,-0.0066,0,0,0,0,0,0,0.0113,0.0102,0.0103,0.0102,0.0098,0.0078,0.0075,0.0077,0.004,0.0035,0.0059,0.0056,0.0008,0.0004,-0.0,-0.0009,-0.0023,-0.0024,-0.0025,-0.0066,-0.0066,-0.0066,0,0,0,0,0,0,0.0113,0.0113,0.0105,0.0103,0.0101,0.0079,0.0082,0.0077,0.0072,0.004,0.0033,0.0059,0.0008,0.0002,-0.0016,-0.0011,-0.0025,-0.0027,-0.0066,-0.0066,-0.0066,-0.0019,0,0,0,0,0,0,0.0113,0.0113,0.0119,0.0104,0.0101,0.0107,0.0082,0.0077,0.0074,0.0071,0.0039,0.0032,0.0007,-0.0013,-0.0018,-0.0013,-0.0028,-0.0066,-0.0066,-0.0066,-0.002,-0.0017,-0.0015,0,0,0,0,0,0.0113,0.0126,0.012,0.012,0.011,0.0108,0.0105,0.0086,0.0075,0.0078,0.0049,0.0033,-0.0018,-0.0015,-0.002,-0.0016,-0.0066,-0.0066,-0.0066,-0.0022,-0.0018,-0.0015,0,0,0,0,0,0,0.0126,0.0123,0.0116,0.0126,0.0121,0.0102,0.0104,0.0093,0.0074,0.007,0.0036,0.0027,0.0012,-0.0008,-0.0003,-0.003,-0.0045,-0.0047,-0.001,-0.0007,-0.0004,0.0013,-0.0029,0,0,0,0,0,0.0133,0.0143,0.0134,0.0143,0.0142,0.0125,0.0122,0.0112,0.0094,0.0085,0.0063,0.0034,0.0008,-0.0004,-0.0027,-0.0036,-0.0067,-0.0039,-0.0036,-0.0034,-0.0025,-0.0071,-0.0071,-0.0067,-0.0067,-0.0067,0,0,0.0141,0.0141,0.0146,0.0146,0.0138,0.0146,0.0121,0.0123,0.0129,0.0082,0.008,0.0046,0.0007,-0.0009,-0.0017,-0.0025,-0.0054,-0.0034,-0.0031,-0.0024,-0.0071,-0.0071,-0.0072,-0.0067,-0.0067,-0.0067,0,0,0.0165,0.0161,0.0177,0.0178,0.0176,0.0166,0.0171,0.0158,0.015,0.0144,0.0106,0.0074,0.0048,0.0013,-0.0007,-0.0003,-0.0038,-0.0007,0.0021,-0.0023,-0.0024,-0.0024,-0.0073,-0.0078,-0.0006,-0.0006,-0.0006,0,0.0174,0.0197,0.0181,0.0198,0.0207,0.0179,0.0201,0.0188,0.0172,0.0168,0.015,0.0089,0.0055,0.0023,0.0022,0.0004,-0.0025,0.0014,-0.0019,-0.002,-0.0022,-0.0071,-0.0078,-0.0004,-0.0004,-0.0004,-0.0004,0,0.021,0.023,0.024,0.0254,0.0256,0.0272,0.0257,0.0259,0.0243,0.0223,0.0194,0.0135,0.0101,0.0078,0.0053,0.0025,0.0006,-0.0009,-0.0024,-0.0019,-0.0072,-0.008,-0.0,-0.0001,-0.0002,-0.0002,0,0,0.0233,0.0263,0.0268,0.0294,0.0293,0.0305,0.0311,0.0312,0.0324,0.0277,0.0275,0.0207,0.017,0.0144,0.0097,0.0052,0.0008,0.0026,0.0023,-0.0016,-0.0092,-0.0101,-0.0111,-0.001,-0.001,-0.0011,-0.0126,0,0.0271,0.0327,0.0323,0.0374,0.0404,0.0387,0.0405,0.0397,0.0372,0.0361,0.028,0.0259,0.0196,0.0184,0.0124,0.0045,-0.0009,0.004,-0.0095,-0.0099,-0.0103,-0.0119,-0.0014,-0.0132,-0.0134,-0.0136,-0.0137,0,0.031,0.0349,0.0409,0.046,0.0471,0.0496,0.0522,0.0532,0.0496,0.0473,0.0412,0.0353,0.0275,0.0227,0.0073,0.0111,0.0019,-0.0056,-0.0062,-0.0089,-0.0123,-0.0138,-0.0151,-0.015,-0.0149,-0.0148,-0.0147,0,0.0351,0.0409,0.0465,0.0482,0.0526,0.0559,0.0584,0.0574,0.0601,0.0546,0.0548,0.0426,0.0387,0.0248,0.0089,0.0088,-0.0084,-0.0106,-0.0213,-0.0215,-0.0192,-0.019,-0.0216,-0.0216,-0.0215,-0.0215,-0.0215,0,0.0398,0.0448,0.05,0.0536,0.062,0.0627,0.07,0.0696,0.0705,0.0736,0.0618,0.0601,0.0396,0.0272,0.0112,-0.0075,-0.0072,-0.021,-0.0244,-0.0171,-0.0165,-0.0198,-0.0195,-0.0219,-0.0218,-0.0218,-0.0217,0,0.0435,0.0464,0.0542,0.0613,0.0644,0.0708,0.0803,0.0857,0.0844,0.0877,0.0871,0.0742,0.057,0.0351,0.0118,-0.0025,-0.0212,-0.028,-0.0188,-0.0215,-0.0323,-0.0315,-0.0409,-0.0411,-0.0412,-0.0413,-0.0413,0,0.0459,0.0501,0.06,0.066,0.0702,0.0802,0.0882,0.0923,0.0976,0.0962,0.0981,0.0837,0.0717,0.0379,0.0133,-0.0194,-0.024,-0.0342,-0.0338,-0.0318,-0.0342,-0.0333,-0.0325,-0.0415,-0.0415,-0.0416,-0.0416,0,0.0506,0.0538,0.0605,0.0726,0.0825,0.0935,0.1044,0.1095,0.1135,0.1133,0.1078,0.0892,0.0687,0.0395,0.0137,-0.0097,-0.028,-0.0355,-0.0354,-0.0351,-0.0326,-0.0347,-0.0338,-0.042,-0.0419,-0.0419,-0.0418,0,0.0538,0.0594,0.0678,0.0786,0.0917,0.103,0.1081,0.1152,0.1205,0.119,0.1168,0.0937,0.0806,0.0445,0.0209,-0.0028,-0.0091,-0.0167,-0.0177,-0.0176,-0.0082,-0.0015,-0.0041,0,0,0,0,0,0.0567,0.063,0.073,0.0852,0.0986,0.1055,0.1176,0.1215,0.1259,0.1242,0.121,0.1019,0.0661,0.05,0.0263,0.0164,-0.015,-0.0124,-0.0246,-0.044,-0.0436,-0.0367,0,0,0,0,0,0,0.0586,0.068,0.0728,0.0891,0.0981,0.1129,0.1208,0.1231,0.1218,0.1218,0.1034,0.0955,0.0606,0.0798,0.0257,0.0183,0.0072,-0.0287,-0.0292,-0.0443,-0.0439,-0.0435,-0.0363,0,0,0,0,0]}]]